OOCL Kaohsiung — 9V9830 — position and weather

sailwx.info

Track history (hours):
 
Tides and Currents Weather Stations Pressure Air Temp Water Temp Dewpoint Dewpoint Depression Visibility Wind Speed Wind Dir Waves Ship Positions

OOCL Kaohsiung

Last reported at 2014-Oct-26 08:33 UTC. Time now 2014-Oct-26 08:36 UTC.
Position N 40°38' W 074°03'.

Length 280 m; draft 13.1 m.

Type: Cargo ship. MMSI: 566389000.

Date/timePositionNaut miles runAvg speedWind from/ knotsBaromVisibWave heightAir tempDewpointWater temp
2014-Oct-26 08:33N 40°38' W 074°03'1110.8
2014-Oct-26 07:33N 40°29' W 073°55'9 8.2
2014-Oct-26 06:29N 40°27' W 073°43'4411.3
2014-Oct-26 02:33N 40°30' W 072°45'1313.1
2014-Oct-26 01:33N 40°31' W 072°28'1313.4
2014-Oct-26 00:34N 40°31' W 072°10'1313.0
2014-Oct-25 23:33N 40°31' W 071°53'1312.8
2014-Oct-25 22:33N 40°33' W 071°36'1313.0
2014-Oct-25 21:33N 40°37' W 071°20'6 5.9
2014-Oct-25 20:33N 40°32' W 071°15'1514.8
2014-Oct-25 19:33N 40°33' W 070°55'1514.8
2014-Oct-25 18:33N 40°33' W 070°36'1514.7
2014-Oct-25 17:33N 40°33' W 070°17'1514.8
2014-Oct-25 16:33N 40°33' W 069°57'1514.9
2014-Oct-25 15:33N 40°34' W 069°37'1514.6
2014-Oct-25 14:33N 40°35' W 069°18'1414.4
2014-Oct-25 13:33N 40°35' W 068°59'1515.0
2014-Oct-25 12:33N 40°42' W 068°42'1615.7
2014-Oct-25 11:31N 40°49' W 068°23'1817.9
2014-Oct-25 10:31N 40°58' W 068°01'28416.7
2014-Oct-24 17:30N 44°20' W 063°29'1314.2
2014-Oct-24 16:33N 44°33' W 063°32'7 7.4
2014-Oct-24 15:33N 44°40' W 063°35'2 1.6
2014-Oct-24 14:24N 44°40' W 063°38'0 0.0
2014-Oct-24 13:27N 44°40' W 063°38'0 0.0
2014-Oct-24 12:27N 44°40' W 063°38'0 0.0
2014-Oct-24 11:27N 44°40' W 063°38'0 0.0
2014-Oct-24 10:30N 44°40' W 063°38'0 0.0
2014-Oct-24 09:30N 44°40' W 063°38'0 0.0
2014-Oct-24 08:33N 44°40' W 063°38'0 0.0
2014-Oct-24 07:33N 44°40' W 063°38'0 0.0
2014-Oct-24 06:33N 44°40' W 063°38'0 0.0
2014-Oct-24 05:30N 44°40' W 063°38'0 0.0
2014-Oct-24 04:33N 44°40' W 063°38'0 0.0
2014-Oct-24 03:33N 44°40' W 063°38'0 0.0
2014-Oct-24 02:33N 44°40' W 063°38'0 0.0
2014-Oct-24 01:21N 44°40' W 063°38'0 0.0
2014-Oct-24 00:27N 44°40' W 063°38'0 0.0
2014-Oct-23 23:27N 44°40' W 063°38'0 0.0
2014-Oct-23 22:27N 44°40' W 063°38'0 0.0
2014-Oct-23 21:27N 44°40' W 063°38'0 0.0
2014-Oct-23 20:30N 44°40' W 063°38'0 0.0
2014-Oct-23 19:15N 44°40' W 063°38'0 0.0
2014-Oct-23 18:33N 44°40' W 063°38'0 0.0
2014-Oct-23 17:33N 44°40' W 063°38'0 0.0
2014-Oct-23 16:33N 44°40' W 063°38'0 0.0
2014-Oct-23 15:30N 44°40' W 063°38'0 0.0
2014-Oct-23 14:33N 44°40' W 063°38'0 0.0
2014-Oct-23 13:33N 44°40' W 063°38'0 0.0
2014-Oct-23 12:24N 44°40' W 063°38'0 0.0
2014-Oct-23 11:24N 44°40' W 063°38'0 0.0
2014-Oct-23 10:31N 44°40' W 063°38'1 1.2
2014-Oct-23 09:33N 44°41' W 063°36'7 7.4
2014-Oct-23 08:33N 44°34' W 063°32'7 7.4
2014-Oct-23 07:33N 44°28' W 063°26'7 7.5
2014-Oct-23 06:33N 44°28' W 063°16'8 7.6
2014-Oct-23 05:32N 44°28' W 063°05'  
2014-Oct-19 17:25N 38°50' W 030°32'1719.4
2014-Oct-19 16:33N 38°41' W 030°14'1919.3
2014-Oct-19 15:33N 38°33' W 029°52'1918.7
2014-Oct-19 14:33N 38°25' W 029°30'1918.7
2014-Oct-19 13:33N 38°19' W 029°08'1818.3
2014-Oct-19 12:33N 38°11' W 028°46'1918.7
2014-Oct-19 11:33N 38°04' W 028°24'1919.4
2014-Oct-19 10:33N 37°55' W 028°02'2019.6
2014-Oct-19 09:33N 37°46' W 027°40'1919.3
2014-Oct-19 08:33N 37°37' W 027°19'1919.5
2014-Oct-19 07:33N 37°28' W 026°57'1919.1
2014-Oct-19 06:33N 37°19' W 026°36'1918.9
2014-Oct-19 05:34N 37°11' W 026°14'1919.3
2014-Oct-19 04:33N 37°02' W 025°53'1919.1
2014-Oct-19 03:33N 36°53' W 025°32'1919.1
2014-Oct-19 02:33N 36°44' W 025°11'1919.1
2014-Oct-19 01:34N 36°37' W 024°48'2119.9
2014-Oct-19 00:29N 36°36' W 024°22'1819.7
2014-Oct-18 23:34N 36°36' W 023°59'89219.0
2014-Oct-17 00:34N 35°57' W 005°33'1918.9
2014-Oct-16 23:34N 36°04' W 005°11'20919.9
2014-Oct-16 13:05N 36°42' W 000°56'5019.9
2014-Oct-16 10:33N 36°56' E 000°04'  
Track history (hours):
 
Tides and Currents Weather Stations Pressure Air Temp Water Temp Dewpoint Dewpoint Depression Visibility Wind Speed Wind Dir Waves Ship Positions

OOCL Kaohsiung

Last reported at 2014-Oct-26 08:33 UTC. Time now 2014-Oct-26 08:36 UTC.
Position N 40°38' W 074°03'.

Length 280 m; draft 13.1 m.

Type: Cargo ship. MMSI: 566389000.

Date/timePositionNaut miles runAvg speedWind from/ knotsBaromVisibWave heightAir tempDewpointWater temp
2014-Oct-26 08:33N 40°38' W 074°03'1110.8
2014-Oct-26 07:33N 40°29' W 073°55'9 8.2
2014-Oct-26 06:29N 40°27' W 073°43'4411.3
2014-Oct-26 02:33N 40°30' W 072°45'1313.1
2014-Oct-26 01:33N 40°31' W 072°28'1313.4
2014-Oct-26 00:34N 40°31' W 072°10'1313.0
2014-Oct-25 23:33N 40°31' W 071°53'1312.8
2014-Oct-25 22:33N 40°33' W 071°36'1313.0
2014-Oct-25 21:33N 40°37' W 071°20'6 5.9
2014-Oct-25 20:33N 40°32' W 071°15'1514.8
2014-Oct-25 19:33N 40°33' W 070°55'1514.8
2014-Oct-25 18:33N 40°33' W 070°36'1514.7
2014-Oct-25 17:33N 40°33' W 070°17'1514.8
2014-Oct-25 16:33N 40°33' W 069°57'1514.9
2014-Oct-25 15:33N 40°34' W 069°37'1514.6
2014-Oct-25 14:33N 40°35' W 069°18'1414.4
2014-Oct-25 13:33N 40°35' W 068°59'1515.0
2014-Oct-25 12:33N 40°42' W 068°42'1615.7
2014-Oct-25 11:31N 40°49' W 068°23'1817.9
2014-Oct-25 10:31N 40°58' W 068°01'28416.7
2014-Oct-24 17:30N 44°20' W 063°29'1314.2
2014-Oct-24 16:33N 44°33' W 063°32'7 7.4
2014-Oct-24 15:33N 44°40' W 063°35'2 1.6
2014-Oct-24 14:24N 44°40' W 063°38'0 0.0
2014-Oct-24 13:27N 44°40' W 063°38'0 0.0
2014-Oct-24 12:27N 44°40' W 063°38'0 0.0
2014-Oct-24 11:27N 44°40' W 063°38'0 0.0
2014-Oct-24 10:30N 44°40' W 063°38'0 0.0
2014-Oct-24 09:30N 44°40' W 063°38'0 0.0
2014-Oct-24 08:33N 44°40' W 063°38'0 0.0
2014-Oct-24 07:33N 44°40' W 063°38'0 0.0
2014-Oct-24 06:33N 44°40' W 063°38'0 0.0
2014-Oct-24 05:30N 44°40' W 063°38'0 0.0
2014-Oct-24 04:33N 44°40' W 063°38'0 0.0
2014-Oct-24 03:33N 44°40' W 063°38'0 0.0
2014-Oct-24 02:33N 44°40' W 063°38'0 0.0
2014-Oct-24 01:21N 44°40' W 063°38'0 0.0
2014-Oct-24 00:27N 44°40' W 063°38'0 0.0
2014-Oct-23 23:27N 44°40' W 063°38'0 0.0
2014-Oct-23 22:27N 44°40' W 063°38'0 0.0
2014-Oct-23 21:27N 44°40' W 063°38'0 0.0
2014-Oct-23 20:30N 44°40' W 063°38'0 0.0
2014-Oct-23 19:15N 44°40' W 063°38'0 0.0
2014-Oct-23 18:33N 44°40' W 063°38'0 0.0
2014-Oct-23 17:33N 44°40' W 063°38'0 0.0
2014-Oct-23 16:33N 44°40' W 063°38'0 0.0
2014-Oct-23 15:30N 44°40' W 063°38'0 0.0
2014-Oct-23 14:33N 44°40' W 063°38'0 0.0
2014-Oct-23 13:33N 44°40' W 063°38'0 0.0
2014-Oct-23 12:24N 44°40' W 063°38'0 0.0
2014-Oct-23 11:24N 44°40' W 063°38'0 0.0
2014-Oct-23 10:31N 44°40' W 063°38'1 1.2
2014-Oct-23 09:33N 44°41' W 063°36'7 7.4
2014-Oct-23 08:33N 44°34' W 063°32'7 7.4
2014-Oct-23 07:33N 44°28' W 063°26'7 7.5
2014-Oct-23 06:33N 44°28' W 063°16'8 7.6
2014-Oct-23 05:32N 44°28' W 063°05'  
2014-Oct-19 17:25N 38°50' W 030°32'1719.4
2014-Oct-19 16:33N 38°41' W 030°14'1919.3
2014-Oct-19 15:33N 38°33' W 029°52'1918.7
2014-Oct-19 14:33N 38°25' W 029°30'1918.7
2014-Oct-19 13:33N 38°19' W 029°08'1818.3
2014-Oct-19 12:33N 38°11' W 028°46'1918.7
2014-Oct-19 11:33N 38°04' W 028°24'1919.4
2014-Oct-19 10:33N 37°55' W 028°02'2019.6
2014-Oct-19 09:33N 37°46' W 027°40'1919.3
2014-Oct-19 08:33N 37°37' W 027°19'1919.5
2014-Oct-19 07:33N 37°28' W 026°57'1919.1
2014-Oct-19 06:33N 37°19' W 026°36'1918.9
2014-Oct-19 05:34N 37°11' W 026°14'1919.3
2014-Oct-19 04:33N 37°02' W 025°53'1919.1
2014-Oct-19 03:33N 36°53' W 025°32'1919.1
2014-Oct-19 02:33N 36°44' W 025°11'1919.1
2014-Oct-19 01:34N 36°37' W 024°48'2119.9
2014-Oct-19 00:29N 36°36' W 024°22'1819.7
2014-Oct-18 23:34N 36°36' W 023°59'89219.0
2014-Oct-17 00:34N 35°57' W 005°33'1918.9
2014-Oct-16 23:34N 36°04' W 005°11'20919.9
2014-Oct-16 13:05N 36°42' W 000°56'5019.9
2014-Oct-16 10:33N 36°56' E 000°04'  

Dump ship's entire track history